This demonstration page uses our WeatherBlox Daily Observations layout. Learn more.

Left ArrowRight Arrow

41.55636, -103.73856

Hourly Observations for July 1, 2015

Temp ( °F °C ) Dew Point ( °F °C ) Humidity (%) Winds ( mph kmh ) Pressure ( in mb ) Visibility ( mi km ) Precip ( " mm )
12:53 am 00:53 Clear 69 20.6 58 14.4 68 68 NW 10 17 29.85 1011 10 16.0934 0 0
1:53 am 01:53 Clear 66 18.9 58 14.4 75 75 NW 6 9 29.84 1010 10 16.0934 0 0
2:53 am 02:53 Clear 65 18.3 58 14.4 78 78 NW 5 7 29.82 1010 10 16.0934 0 0
3:53 am 03:53 Clear 63 17.2 58 14.4 84 84 NW 5 7 29.85 1011 10 16.0934 0 0
4:53 am 04:53 Clear 61 16.1 58 14.4 90 90 NNW 6 9 29.85 1011 10 16.0934 0 0
5:53 am 05:53 Sunny 63 17.2 58 14.4 84 84 Calm 29.87 1012 10 16.0934 0 0
6:53 am 06:53 Sunny 66 18.9 59 15 78 78 WNW 6 9 29.88 1012 10 16.0934 0 0
7:53 am 07:53 Sunny 73 22.8 59 15 62 62 WNW 9 15 29.89 1012 10 16.0934 0 0
8:53 am 08:53 Sunny 77 25 60 15.6 56 56 WNW 8 13 29.89 1012 10 16.0934 0 0
9:53 am 09:53 Sunny 82 27.8 62 16.7 51 51 WNW 6 9 29.88 1012 10 16.0934 0 0
10:53 am 10:53 Sunny 89 31.7 60 15.6 38 38 WNW 8 13 29.87 1012 10 16.0934 0 0
11:53 am 11:53 Sunny 91 32.8 47 8.3 22 22 E 3 6 29.87 1012 10 16.0934 0 0
12:53 pm 12:53 Sunny 93 33.9 49 9.4 22 22 VRB 3 6 29.87 1011 10 16.0934 0 0
1:53 pm 13:53 Sunny 93 33.9 48 8.9 21 21 VRB 3 6 29.86 1011 10 16.0934 0 0
2:53 pm 14:53 Sunny 94 34.4 48 8.9 21 21 S 3 6 29.84 1011 10 16.0934 0 0
3:53 pm 15:53 Mostly Sunny 92 33.3 50 10 24 24 SW 8 13 29.83 1010 10 16.0934 0 0
4:53 pm 16:53 Sunny 90 32.2 52 11.1 27 27 ESE 8 13 29.84 1010 10 16.0934 0 0
5:53 pm 17:53 Mostly Sunny 89 31.7 52 11.1 28 28 ESE 13 20 29.83 1010 10 16.0934 0 0
6:45 pm 18:45 Mostly Cloudy with Nearby Thunderstorms 87 30.6 55 12.8 34 34 ESE 10 17 29.62 1003 10 16.0934 0 0
6:53 pm 18:53 Mostly Cloudy with Nearby Thunderstorms 87 30.6 54 12.2 32 32 SE 10 17 29.81 1010 10 16.0934 0 0
7:01 pm 19:01 Cloudy with Thunderstorms 86 30 55 12.8 35 35 SE 10 17 29.65 1004 10 16.0934 0 0
7:35 pm 19:35 Windy with Storms Likely 70 21.1 60 15.6 71 71 NE 24 39 29.83 1010 7 11.26538 0.08 2.032
7:46 pm 19:46 Cloudy with Nearby Thunderstorms 69 20.6 62 16.7 78 78 NE 25 41 29.8 1009 4 6.43736 0.1 2.54
7:53 pm 19:53 Cloudy with Nearby Thunderstorms 69 20.6 62 16.7 78 78 ENE 20 31 29.88 1012 7 11.26538 0.1 2.54
8:15 pm 20:15 Mostly Cloudy 70 21 N/A N/A E 13 20 29.83 1010 10 16.0934 0 0.0254
8:22 pm 20:22 Mostly Cloudy with Nearby Thunderstorms 72 22 N/A N/A E 7 11 29.83 1010 10 16.0934 0 0
8:53 pm 20:53 Cloudy with Light Rain 70 21 N/A N/A Calm 29.91 1013 10 16.0934 0 0.0254
9:53 pm 21:53 Clear 68 20 66 18.9 93 93 SE 6 9 29.91 1013 10 16.0934 0 0.0254
10:53 pm 22:53 Clear 68 20 62 16.7 81 81 ESE 6 9 29.88 1012 10 16.0934 0 0
11:53 pm 23:53 Clear 67 19.4 59 15 76 76 SE 8 13 29.85 1011 10 16.0934 0 0

Powered by AerisWeather